Location: Unspecified
(41.0107°N, 0.0000°E)
Time: 12:27:18
(UTC+00:00)

HODOYOSHI 4 - Visible Passes

Search period start: 04 April 2026 00:00
Search period end: 14 April 2026 00:00
Orbit: 588 x 620 km, 97.5° (Epoch: 29 March)

Date Brightness Start Highest point End Pass type
(mag) Time Alt. Az. Time Alt. Az. Time Alt. Az.
4 Apr ? 04:55:32 10° SE 04:59:31 37° ENE 05:03:29 10° N visible
7 Apr ? 18:53:14 10° N 18:57:10 39° WNW 19:01:02 10° SW visible
8 Apr ? 04:11:50 10° E 04:13:48 13° ENE 04:15:47 10° NE visible
8 Apr ? 19:05:53 10° N 19:09:30 29° WNW 19:13:05 10° SW visible
9 Apr ? 04:23:16 10° ESE 04:26:04 17° ENE 04:28:54 10° NNE visible
9 Apr ? 19:18:37 10° NNW 19:21:48 21° WNW 19:24:59 10° WSW visible
10 Apr ? 04:35:00 10° ESE 04:38:22 23° ENE 04:41:45 10° NNE visible
10 Apr ? 19:31:30 10° NNW 19:34:06 16° WNW 19:36:40 10° WSW visible
11 Apr ? 04:46:55 10° SE 04:50:41 30° ENE 04:54:27 10° N visible
11 Apr ? 19:44:44 10° NW 19:46:21 12° WNW 19:47:57 10° W visible
